Regional Weather Roundup
Issued by NWS

Home | Current Version | Previous Version | Graphics & Text | Print | Product List | Glossary On
Versions: 1 2 3 4 5 6 7 8 9 10 11 12 13 14 15 16 17 18 19 20 21 22 23 24 25 26 27 28 29 30 31 32 33 34 35 36 37 38 39 40 41 42 43 44 45 46 47 48 49 50
000
ASUS43 KOAX 261610
RWRNE

WEATHER ROUNDUP FOR NEBRASKA
NATIONAL WEATHER SERVICE OMAHA NE
1000 AM CST WED NOV 26 2014

NOTES: SATELLITE DATA IS BEING USED TO AUGMENT CLOUD COVER ABOVE
       12000 FEET.
       "FAIR" INDICATES FEW OR NO CLOUDS BELOW 12,000 FEET WITH NO
       SIGNIFICANT WEATHER AND/OR OBSTRUCTIONS TO VISIBILITY.

  * THESE STATIONS DO NOT REPORT WEATHER SUCH AS RAIN...SNOW OR FOG.

NEZ001>004-019>022-054>056-261700-
NEBRASKA PANHANDLE

CITY           SKY/WX    TMP DP  RH WIND       PRES   REMARKS
SCOTTSBLUFF    MIX PCPN  29  26  89 W7        30.23R WCI  22
ALLIANCE       CLOUDY    26  21  81 NE3       30.22R
CHADRON        CLOUDY    33  21  61 CALM      30.26R
KIMBALL        LGT SNOW  27  26  94 NW7       30.19S WCI  20
SIDNEY         LGT SNOW  28  25  88 NW13      30.23R FOG     WCI  17
$$

NEZ057>060-069>072-079>082-261700-
SOUTHWEST NEBRASKA

CITY           SKY/WX    TMP DP  RH WIND       PRES   REMARKS
NORTH PLATTE   CLOUDY    29  19  66 N10G28    30.25R WCI  20
IMPERIAL       CLOUDY    31  19  61 N15       30.25R WCI  20
LEXINGTON      PTSUNNY   32  22  66 N20       30.21R WCI  20
MCCOOK         PTSUNNY   34  19  54 N24G30    30.24R WCI  21
OGALLALA       CLOUDY    31  23  71 N13       30.25R WCI  21
$$

NEZ005>010-023>029-035>040-094-261700-
NORTH CENTRAL NEBRASKA

CITY           SKY/WX    TMP DP  RH WIND       PRES   REMARKS
VALENTINE      CLOUDY    23  17  78 N10G22    30.28R WCI  12
AINSWORTH      CLOUDY    21  18  86 NW14      30.26R WCI   8
BROKEN BOW     CLOUDY    27  19  72 N28G36    30.21R WCI  11
O`NEILL        CLOUDY    23  20  91 NW22G30   30.23R WCI   7
ORD            CLOUDY    25  18  74 N22G32    30.20R WCI  10
THEDFORD       CLOUDY    27  23  84 N13       30.25R WCI  16
$$

NEZ041-046>049-061>064-073>077-083>087-261700-
SOUTH CENTRAL NEBRASKA

CITY           SKY/WX    TMP DP  RH WIND       PRES   REMARKS
GRAND ISLAND   CLOUDY    27  20  75 N28G36    30.17R WCI  11
AURORA         CLOUDY    29  22  75 N28G38    30.13R WCI  14
HASTINGS       CLOUDY    29  20  69 N31G38    30.15R WCI  13
HEBRON         CLOUDY    32  24  71 NW28G35   30.12R WCI  18
HOLDREGE       CLOUDY    31  21  65 NW23G35   30.20R WCI  18
KEARNEY *      CLOUDY    28  19  69 NW35G40   30.19R WCI  12
YORK           CLOUDY    28  23  80 N22G31    30.11R WCI  15
$$

NEZ011>018-030>034-042>045-261700-
NORTHEAST NEBRASKA

CITY           SKY/WX    TMP DP  RH WIND       PRES   REMARKS
NORFOLK        MIX PCPN  26  21  81 N30G37    30.13R WCI  10
ALBION         CLOUDY    26  19  73 N24G35    30.15R WCI  11
BLAIR          CLOUDY    35  30  83 N21G30    29.99R WCI  23
COLUMBUS *     CLOUDY    27  19  74 N26G33    30.12R WCI  11
FREMONT        CLOUDY    34  29  84 NW22G31   30.05R WCI  22
TEKAMAH        LGT SNOW  33  29  85 N28G35    30.04R FOG     WCI  20
WAYNE          CLOUDY    28  23  82 N26G37    30.12R WCI  12
$$

NEZ050>053-065>068-078-088>093-261700-
SOUTHEAST NEBRASKA

CITY           SKY/WX    TMP DP  RH WIND       PRES   REMARKS
LINCOLN        CLOUDY    32  25  75 NW26G36   30.08R WCI  18
OMAHA EPPLEY   CLOUDY    35  29  78 N28G37    30.01R WCI  22
BEATRICE       CLOUDY    33  28  79 NW25G33   30.07R WCI  21
FALLS CITY     CLOUDY    39  30  70 NW24G37   29.99R WCI  28
NEBRASKA CITY  CLOUDY    36  30  79 NW25G35   29.99R WCI  23
PLATTSMOUTH    CLOUDY    35  32  89 NW22G29   29.97R FOG     WCI  23
$$

NEZ044-045-051>053-067-261700-
OMAHA AREA

CITY           SKY/WX    TMP DP  RH WIND       PRES   REMARKS
OMAHA EPPLEY   CLOUDY    35  29  78 N28G37    30.01R WCI  22
BLAIR          CLOUDY    35  30  83 N21G30    29.99R WCI  23
FREMONT        CLOUDY    34  29  84 NW22G31   30.05R WCI  22
MILLARD        CLOUDY    37  32  81 NW17G28   30.00R WCI  28
OFFUTT AFB     CLOUDY    37  32  84 NW16G28   29.98R WCI  27
PLATTSMOUTH    CLOUDY    35  32  89 NW22G29   29.97R FOG     WCI  23
WAHOO          CLOUDY    32  28  86 NW23G33   30.04R WCI  19
$$


USA.gov is the U.S. government's official web portal to all federal, state and local government web resources and services.